Temp
-7 -7 -7 -7 -7 -8 -7 -7 -8 -8 -8 -8 -8 -8 -8 -8 -8 -8 -8 -8 -8 -8 -8 -8 -8 -8 -8 -8 -8 -8 -8 -8 -8 -7 -7 -7 -7 -7 -7 -7 -7 -7 -7 -7 -7 -7 -7 -7 -8 -8 -8 -8 -8 -8 -8 -7 -7 -7 -7 -7 -7 -7 -7 -7 -7 -7 -7 -7 -7 -7 -7 -7 -7 -7
-7 -7 -7 -7 -7 -7 -7 -7 -7 -8 -8 -8 -8 -8 -8 -8 -8 -8 -8 -8 -8 -8 -8 -8 -8 -8 -8 -8 -8 -8 -8 -8 -8 -7 -7 -7 -7 -7 -7 -7 -7 -7 -7 -7 -7 -7 -7 -7 -8 -8 -8 -8 -8 -8 -8 -8 -7 -7 -7 -7 -7 -7 -7 -7 -7 -7 -7 -7 -7 -7 -7 -7 -7 -7
-7 -7 -7 -7 -7 -7 -7 -7 -7 -8 -8 -8 -7 -8 -8 -8 -8 -8 -8 -8 -8 -8 -8 -8 -8 -8 -8 -8 -8 -8 -7 -7 -7 -7 -7 -7 -7 -7 -7 -7 -7 -7 -7 -7 -7 -7 -7 -7 -8 -8 -8 -8 -8 -8 -8 -8 -8 -8 -7 -7 -7 -7 -7 -7 -7 -7 -7 -7 -7 -7 -7 -7 -7 -7
-7 -7 -7 -7 -7 -7 -7 -7 -7 -7 -7 -7 -7 -7 -7 -8 -8 -8 -8 -8 -8 -8 -8 -8 -8 -8 -8 -8 -8 -7 -7 -7 -7 -7 -7 -7 -7 -7 -7 -7 -7 -7 -7 -7 -7 -7 -7 -7 -8 -8 -8 -8 -8 -8 -8 -8 -8 -8 -8 -8 -7 -7 -7 -7 -7 -7 -7 -7 -7 -7 -7 -7 -6 -7
-7 -7 -7 -7 -7 -7 -7 -7 -7 -7 -7 -7 -7 -7 -7 -7 -7 -7 -8 -8 -8 -8 -8 -8 -8 -8 -8 -7 -7 -7 -7 -7 -7 -7 -7 -7 -7 -7 -7 -7 -7 -7 -7 -7 -7 -7 -7 -7 -7 -8 -8 -8 -8 -8 -8 -8 -8 -8 -8 -8 -8 -7 -7 -7 -7 -7 -7 -7 -7 -7 -7 -6 -6 -6
-6 -6 -6 -7 -7 -7 -7 -7 -7 -7 -7 -7 -7 -7 -7 -7 -7 -7 -7 -8 -8 -7 -7 -7 -7 -7 -7 -7 -7 -7 -7 -7 -7 -7 -7 -7 -7 -7 -7 -7 -7 -7 -7 -7 -7 -7 -7 -7 -7 -8 -8 -8 -8 -8 -8 -8 -8 -8 -8 -8 -8 -8 -7 -7 -7 -7 -7 -7 -7 -7 -7 -6 -6 -6
-6 -6 -6 -6 -6 -7 -7 -7 -7 -7 -7 -7 -7 -7 -7 -7 -7 -7 -7 -7 -7 -7 -7 -7 -7 -7 -7 -7 -7 -7 -7 -7 -7 -7 -7 -7 -7 -7 -7 -7 -7 -7 -7 -7 -7 -7 -7 -7 -7 -7 -8 -8 -8 -8 -8 -8 -8 -8 -8 -8 -8 -8 -8 -7 -7 -7 -7 -7 -7 -7 -7 -6 -6 -6
-6 -6 -6 -6 -6 -6 -6 -6 -7 -7 -7 -7 -7 -7 -7 -7 -7 -7 -7 -7 -7 -7 -7 -7 -7 -7 -7 -7 -7 -7 -7 -7 -7 -7 -7 -7 -7 -7 -7 -7 -7 -7 -7 -7 -7 -7 -8 -7 -7 -7 -7 -8 -8 -8 -8 -8 -8 -8 -8 -8 -8 -8 -8 -8 -8 -7 -7 -7 -7 -7 -7 -6 -6 -6
-6 -6 -6 -6 -6 -6 -6 -6 -6 -6 -6 -7 -7 -7 -7 -7 -7 -7 -7 -7 -7 -7 -7 -7 -7 -7 -7 -7 -7 -7 -7 -7 -7 -7 -7 -7 -7 -7 -7 -7 -7 -7 -7 -7 -7 -8 -7 -7 -7 -8 -7 -7 -7 -8 -8 -8 -8 -8 -8 -8 -8 -8 -8 -8 -8 -8 -8 -7 -7 -7 -7 -7 -6 -6
-6 -6 -6 -6 -6 -6 -6 -6 -6 -6 -6 -6 -6 -7 -7 -7 -7 -7 -7 -7 -7 -7 -7 -7 -7 -7 -7 -7 -7 -7 -7 -7 -7 -7 -7 -7 -7 -7 -7 -7 -7 -7 -7 -7 -8 -8 -8 -7 -7 -7 -7 -7 -7 -7 -7 -8 -8 -8 -8 -8 -8 -7 -7 -7 -7 -7 -7 -7 -7 -7 -7 -7 -7 -7
-6 -6 -6 -6 -6 -6 -6 -6 -6 -6 -6 -7 -6 -6 -7 -7 -7 -7 -7 -7 -7 -7 -7 -7 -7 -7 -7 -7 -7 -7 -7 -7 -7 -7 -7 -7 -7 -7 -7 -7 -7 -7 -7 -7 -7 -8 -8 -7 -7 -7 -7 -7 -7 -7 -7 -7 -7 -7 -7 -8 -8 -7 -7 -7 -7 -7 -7 -7 -7 -7 -7 -7 -7 -7
-6 -6 -6 -6 -6 -6 -6 -6 -6 -6 -7 -7 -7 -6 -7 -7 -7 -7 -7 -7 -7 -7 -7 -7 -7 -7 -7 -7 -7 -7 -7 -7 -7 -7 -7 -7 -6 -6 -6 -6 -7 -7 -7 -7 -7 -7 -7 -7 -7 -7 -7 -7 -7 -7 -7 -7 -7 -7 -7 -7 -7 -7 -7 -7 -7 -7 -7 -7 -7 -7 -7 -7 -7 -7
-6 -6 -6 -6 -6 -6 -6 -6 -7 -6 -6 -7 -7 -7 -7 -7 -7 -7 -7 -7 -7 -7 -7 -7 -7 -7 -7 -7 -7 -7 -7 -7 -7 -7 -7 -7 -6 -6 -6 -6 -6 -7 -6 -6 -6 -7 -7 -7 -7 -7 -7 -7 -7 -7 -7 -7 -7 -7 -7 -7 -7 -7 -7 -7 -7 -7 -7 -7 -7 -7 -7 -7 -7 -7
-6 -6 -6 -6 -6 -6 -6 -6 -7 -6 -6 -7 -7 -7 -7 -7 -7 -7 -7 -7 -7 -7 -7 -6 -6 -6 -6 -6 -6 -7 -7 -7 -7 -7 -7 -7 -7 -7 -6 -6 -6 -7 -7 -6 -6 -6 -6 -6 -6 -6 -6 -6 -7 -7 -7 -7 -7 -7 -6 -6 -6 -6 -6 -6 -6 -6 -6 -6 -7 -7 -7 -7 -7 -7
-7 -6 -6 -6 -6 -6 -6 -6 -6 -6 -6 -7 -7 -6 -7 -7 -7 -7 -7 -7 -7 -7 -7 -6 -6 -6 -6 -6 -6 -6 -7 -7 -7 -7 -7 -7 -7 -7 -7 -6 -6 -6 -7 -6 -6 -6 -6 -6 -6 -6 -6 -6 -6 -6 -6 -7 -7 -7 -7 -7 -6 -6 -6 -6 -6 -6 -6 -6 -6 -6 -6 -6 -6 -7
-7 -7 -7 -7 -7 -7 -6 -6 -6 -6 -6 -7 -7 -7 -7 -7 -7 -7 -7 -7 -7 -7 -7 -7 -7 -6 -6 -6 -6 -6 -6 -7 -7 -7 -7 -7 -7 -7 -7 -7 -7 -6 -7 -6 -6 -6 -6 -6 -6 -6 -6 -6 -6 -6 -6 -6 -6 -6 -7 -7 -7 -6 -6 -6 -6 -6 -6 -6 -6 -6 -6 -6 -6 -6
-7 -7 -7 -7 -7 -7 -7 -7 -7 -7 -7 -7 -7 -7 -7 -7 -7 -7 -7 -7 -7 -7 -7 -7 -7 -7 -7 -6 -6 -6 -6 -7 -7 -7 -7 -7 -7 -7 -7 -7 -7 -7 -7 -7 -7 -6 -6 -6 -6 -6 -6 -6 -6 -6 -6 -6 -6 -6 -6 -6 -6 -6 -6 -6 -6 -6 -6 -6 -6 -6 -6 -6 -6 -6
-7 -7 -7 -7 -7 -7 -7 -7 -7 -7 -7 -7 -7 -7 -7 -7 -7 -7 -7 -7 -7 -7 -7 -7 -7 -7 -7 -7 -7 -7 -7 -7 -7 -7 -7 -7 -7 -7 -7 -7 -7 -7 -7 -7 -7 -6 -6 -6 -6 -6 -6 -6 -6 -6 -6 -6 -6 -6 -6 -6 -6 -6 -6 -6 -6 -6 -6 -6 -6 -6 -6 -6 -5 -5
-7 -7 -7 -7 -7 -7 -7 -7 -7 -7 -7 -7 -7 -7 -7 -7 -7 -7 -7 -7 -7 -7 -7 -7 -7 -7 -7 -7 -7 -7 -7 -7 -7 -7 -7 -7 -7 -7 -7 -7 -6 -6 -6 -7 -6 -6 -6 -6 -6 -6 -6 -6 -6 -6 -6 -6 -6 -6 -6 -6 -6 -6 -6 -6 -6 -6 -6 -6 -6 -6 -6 -6 -6 -5
-7 -7 -7 -7 -7 -7 -7 -7 -7 -7 -7 -7 -7 -7 -7 -7 -7 -7 -7 -7 -7 -7 -7 -7 -7 -7 -7 -7 -7 -7 -7 -7 -7 -7 -7 -7 -7 -7 -7 -7 -6 -6 -6 -6 -6 -6 -6 -6 -6 -6 -6 -6 -6 -6 -6 -6 -6 -6 -6 -6 -6 -6 -6 -6 -6 -6 -6 -6 -6 -6 -6 -6 -6 -6
-7 -7 -7 -7 -7 -7 -7 -7 -7 -7 -7 -7 -7 -7 -7 -7 -7 -8 -8 -8 -8 -8 -7 -7 -7 -7 -7 -7 -7 -7 -7 -7 -7 -7 -7 -7 -7 -7 -7 -7 -7 -6 -6 -6 -6 -6 -6 -6 -6 -6 -6 -6 -6 -6 -6 -6 -6 -6 -6 -6 -6 -6 -6 -6 -6 -6 -6 -6 -6 -6 -6 -6 -6 -6
-7 -7 -7 -7 -7 -7 -7 -7 -7 -7 -7 -7 -7 -7 -7 -7 -7 -8 -8 -8 -8 -8 -8 -8 -8 -7 -7 -7 -7 -8 -8 -7 -7 -7 -7 -7 -7 -7 -7 -7 -7 -6 -6 -6 -6 -6 -6 -6 -7 -7 -6 -6 -6 -6 -6 -6 -6 -6 -6 -6 -6 -6 -6 -6 -6 -6 -6 -6 -6 -6 -6 -6 -6 -6
-7 -7 -7 -7 -7 -7 -7 -7 -7 -7 -7 -7 -7 -7 -7 -7 -7 -7 -8 -8 -8 -8 -8 -8 -8 -7 -7 -7 -8 -8 -8 -8 -8 -7 -7 -7 -7 -7 -7 -7 -7 -7 -6 -6 -6 -6 -6 -6 -7 -7 -7 -7 -7 -7 -7 -7 -7 -7 -6 -6 -7 -7 -7 -7 -6 -7 -7 -7 -6 -6 -6 -6 -6 -6
-7 -7 -7 -7 -7 -7 -7 -7 -7 -7 -7 -8 -8 -7 -7 -7 -7 -7 -7 -8 -8 -8 -8 -8 -8 -8 -8 -8 -8 -8 -8 -8 -8 -7 -7 -7 -7 -7 -7 -7 -7 -7 -7 -7 -7 -7 -7 -7 -7 -7 -7 -7 -7 -7 -7 -7 -7 -7 -7 -7 -7 -7 -7 -7 -7 -7 -7 -7 -7 -7 -7 -7 -7 -7
-7 -7 -7 -7 -7 -7 -7 -7 -7 -7 -7 -7 -8 -8 -8 -8 -7 -7 -7 -8 -8 -8 -8 -8 -8 -8 -8 -8 -8 -8 -8 -8 -8 -8 -8 -8 -7 -7 -7 -7 -7 -7 -7 -7 -7 -7 -7 -7 -7 -7 -7 -7 -7 -7 -7 -7 -6 -6 -7 -7 -7 -7 -7 -7 -7 -7 -7 -7 -7 -7 -7 -7 -7 -7
-7 -7 -7 -7 -7 -7 -7 -7 -7 -7 -7 -7 -8 -8 -8 -8 -8 -8 -7 -7 -7 -8 -8 -8 -8 -8 -8 -8 -8 -8 -8 -8 -8 -8 -8 -8 -8 -7 -7 -7 -7 -7 -7 -7 -7 -7 -8 -8 -8 -8 -8 -8 -8 -8 -8 -7 -7 -7 -7 -7 -7 -7 -7 -7 -7 -7 -7 -7 -7 -7 -7 -7 -7 -7
-7 -7 -7 -7 -7 -7 -7 -7 -7 -7 -7 -8 -8 -8 -8 -8 -8 -8 -8 -8 -8 -8 -8 -8 -8 -8 -8 -8 -8 -8 -8 -8 -8 -8 -8 -8 -8 -7 -7 -7 -7 -7 -7 -7 -7 -7 -8 -8 -8 -8 -8 -8 -8 -8 -8 -8 -8 -8 -8 -7 -7 -7 -7 -7 -7 -7 -7 -7 -7 -7 -7 -7 -7 -7
-7 -7 -7 -7 -7 -7 -7 -7 -7 -7 -7 -7 -8 -8 -8 -8 -8 -8 -8 -8 -8 -8 -8 -8 -8 -8 -8 -8 -8 -8 -8 -8 -8 -8 -8 -8 -8 -8 -8 -8 -8 -8 -8 -8 -7 -7 -8 -8 -8 -8 -8 -8 -8 -8 -8 -8 -8 -9 -9 -8 -8 -8 -7 -7 -7 -7 -8 -8 -8 -8 -8 -8 -7 -7
-7 -7 -7 -7 -7 -7 -7 -7 -7 -7 -7 -7 -7 -8 -8 -8 -8 -8 -8 -9 -9 -9 -9 -8 -8 -8 -8 -8 -8 -8 -8 -8 -8 -8 -8 -8 -8 -8 -8 -8 -8 -8 -8 -8 -8 -8 -8 -8 -8 -8 -8 -8 -8 -8 -8 -9 -9 -9 -9 -9 -8 -8 -8 -8 -8 -8 -8 -8 -8 -8 -8 -7 -7 -7
-7 -7 -7 -7 -7 -7 -7 -7 -7 -7 -7 -7 -7 -7 -8 -8 -8 -8 -8 -9 -9 -9 -9 -9 -9 -9 -9 -9 -9 -9 -8 -8 -8 -8 -8 -8 -8 -8 -8 -8 -8 -8 -8 -8 -8 -8 -8 -8 -8 -8 -8 -8 -8 -8 -8 -8 -9 -8 -8 -8 -8 -8 -8 -8 -8 -8 -8 -8 -8 -8 -8 -7 -7 -7
-8 -8 -8 -8 -8 -8 -7 -7 -7 -7 -7 -7 -7 -8 -8 -8 -8 -8 -9 -9 -9 -9 -9 -9 -9 -9 -9 -9 -9 -9 -9 -9 -9 -8 -8 -9 -9 -9 -9 -8 -8 -8 -8 -8 -8 -8 -8 -8 -8 -8 -8 -8 -8 -8 -8 -8 -8 -8 -8 -8 -8 -8 -8 -8 -8 -8 -8 -8 -8 -8 -7 -7 -7 -7
-8 -8 -8 -8 -8 -8 -8 -8 -8 -8 -8 -8 -8 -8 -8 -8 -8 -8 -8 -8 -8 -8 -8 -8 -8 -9 -9 -9 -9 -9 -9 -9 -9 -9 -9 -10 -10 -9 -9 -9 -8 -8 -8 -8 -8 -8 -8 -8 -8 -8 -8 -8 -8 -8 -7 -7 -7 -7 -7 -7 -7 -7 -7 -7 -8 -8 -8 -8 -8 -7 -7 -7 -7 -7
-8 -8 -8 -8 -9 -9 -9 -9 -8 -8 -8 -8 -8 -8 -8 -8 -8 -8 -8 -8 -8 -8 -8 -8 -8 -8 -8 -9 -9 -9 -9 -9 -10 -10 -10 -10 -10 -9 -9 -9 -9 -9 -9 -9 -9 -8 -8 -8 -8 -8 -8 -8 -7 -7 -7 -7 -7 -7 -7 -7 -7 -7 -7 -7 -7 -7 -7 -7 -8 -8 -8 -8 -7 -7
-8 -9 -9 -9 -9 -9 -9 -9 -9 -9 -9 -9 -9 -9 -8 -8 -8 -8 -9 -9 -8 -8 -8 -8 -8 -8 -9 -9 -9 -9 -9 -10 -10 -10 -10 -9 -9 -9 -9 -9 -9 -9 -9 -9 -9 -9 -9 -9 -9 -9 -8 -8 -8 -8 -8 -8 -7 -7 -7 -7 -7 -7 -7 -7 -7 -7 -7 -7 -8 -8 -8 -8 -8 -8
-9 -9 -9 -9 -9 -9 -9 -9 -9 -9 -9 -9 -9 -9 -9 -9 -9 -9 -9 -9 -9 -9 -8 -8 -9 -9 -9 -9 -9 -9 -10 -10 -10 -10 -9 -9 -9 -9 -9 -9 -9 -9 -9 -9 -9 -9 -9 -9 -9 -9 -9 -9 -9 -8 -8 -8 -8 -8 -7 -7 -7 -7 -7 -7 -7 -7 -7 -7 -8 -8 -8 -8 -8 -8
-9 -9 -9 -9 -9 -9 -9 -9 -9 -9 -9 -9 -9 -9 -9 -9 -9 -9 -9 -9 -9 -9 -9 -9 -9 -9 -9 -10 -10 -10 -10 -10 -10 -10 -10 -10 -9 -10 -10 -10 -10 -10 -10 -9 -9 -9 -9 -9 -9 -10 -10 -9 -9 -9 -9 -8 -8 -8 -8 -8 -8 -8 -8 -8 -8 -8 -8 -8 -8 -8 -8 -8 -8 -8
-10 -10 -10 -10 -10 -10 -10 -10 -10 -10 -9 -9 -9 -9 -9 -9 -9 -9 -9 -9 -9 -9 -10 -10 -10 -10 -10 -10 -10 -10 -10 -10 -10 -10 -10 -10 -10 -10 -10 -10 -10 -10 -10 -9 -9 -9 -9 -9 -10 -10 -10 -10 -10 -10 -10 -9 -9 -9 -9 -9 -8 -8 -8 -8 -8 -8 -8 -8 -8 -8 -8 -8 -8 -8
-10 -10 -10 -10 -10 -10 -10 -10 -10 -10 -10 -10 -10 -10 -10 -10 -10 -10 -10 -10 -10 -10 -10 -10 -10 -10 -10 -10 -10 -10 -10 -10 -10 -10 -10 -10 -10 -10 -10 -10 -10 -10 -10 -10 -10 -9 -9 -9 -10 -10 -10 -10 -10 -10 -10 -10 -10 -9 -9 -9 -9 -9 -9 -9 -9 -9 -9 -8 -8 -8 -8 -8 -8 -9
-11 -11 -11 -11 -11 -11 -10 -10 -10 -10 -10 -10 -10 -11 -11 -11 -10 -10 -10 -10 -10 -10 -10 -10 -10 -10 -10 -10 -10 -10 -10 -10 -10 -10 -10 -10 -10 -10 -10 -10 -10 -10 -10 -10 -10 -10 -9 -9 -9 -9 -9 -10 -10 -10 -10 -10 -10 -10 -10 -10 -9 -9 -9 -9 -9 -9 -9 -9 -9 -9 -9 -9 -9 -9
-11 -11 -11 -11 -11 -11 -11 -11 -11 -11 -11 -11 -11 -11 -11 -11 -11 -11 -11 -11 -11 -11 -11 -11 -11 -11 -10 -10 -10 -10 -10 -10 -10 -10 -10 -10 -10 -10 -10 -10 -10 -10 -10 -10 -10 -10 -10 -10 -10 -10 -10 -10 -10 -10 -10 -10 -10 -10 -10 -10 -10 -10 -10 -10 -9 -9 -9 -9 -9 -9 -9 -9 -9 -10
-12 -12 -12 -12 -11 -11 -11 -11 -11 -11 -11 -11 -11 -11 -11 -11 -11 -11 -11 -11 -11 -11 -11 -11 -11 -11 -11 -11 -11 -10 -10 -10 -10 -10 -10 -10 -10 -10 -10 -10 -10 -10 -10 -10 -10 -10 -10 -10 -10 -10 -10 -10 -10 -10 -10 -10 -11 -11 -11 -10 -10 -10 -10 -10 -10 -9 -9 -9 -9 -9 -9 -9 -9 -10
-12 -12 -12 -12 -12 -12 -12 -12 -12 -12 -12 -12 -12 -12 -12 -11 -11 -11 -11 -11 -11 -11 -11 -11 -11 -11 -11 -11 -11 -11 -11 -11 -11 -11 -11 -11 -11 -11 -11 -11 -11 -11 -11 -11 -11 -11 -11 -11 -10 -10 -10 -10 -10 -10 -10 -10 -11 -11 -11 -11 -11 -11 -10 -10 -10 -10 -10 -10 -10 -9 -9 -9 -9 -9
-12 -12 -12 -12 -12 -12 -12 -12 -12 -12 -12 -12 -12 -12 -12 -12 -12 -12 -12 -12 -12 -12 -12 -12 -12 -11 -11 -11 -11 -11 -11 -11 -11 -11 -11 -11 -11 -11 -11 -11 -11 -11 -11 -11 -11 -11 -11 -11 -11 -11 -11 -11 -11 -11 -11 -11 -11 -11 -11 -11 -11 -11 -11 -11 -11 -11 -10 -10 -10 -10 -10 -9 -9 -9
-12 -12 -12 -12 -12 -12 -12 -12 -12 -12 -12 -12 -12 -12 -12 -12 -12 -12 -12 -12 -12 -12 -12 -12 -12 -12 -12 -12 -12 -12 -12 -12 -12 -12 -11 -11 -11 -11 -11 -11 -11 -11 -11 -11 -11 -11 -11 -11 -11 -11 -11 -11 -11 -11 -11 -11 -11 -11 -11 -11 -11 -11 -11 -11 -11 -11 -11 -11 -11 -11 -11 -10 -10 -10
-12 -12 -12 -12 -12 -12 -12 -12 -12 -12 -12 -12 -12 -12 -12 -12 -12 -12 -12 -12 -12 -13 -13 -12 -12 -12 -12 -12 -12 -12 -12 -12 -12 -12 -12 -12 -12 -12 -12 -12 -12 -12 -12 -12 -12 -12 -12 -12 -12 -12 -12 -12 -12 -12 -12 -12 -12 -12 -12 -12 -12 -12 -12 -12 -12 -12 -12 -12 -12 -12 -12 -12 -11 -11
Height
5955 5955 5955 5955 5955 5954 5954 5954 5954 5954 5954 5954 5954 5954 5953 5953 5953 5953 5952 5952 5951 5951 5950 5950 5949 5948 5948 5947 5947 5947 5946 5946 5945 5945 5945 5945 5945 5945 5945 5945 5944 5944 5943 5943 5942 5942 5941 5941 5940 5940 5939 5938 5938 5937 5936 5936 5935 5935 5934 5934 5933 5933 5933 5932 5932 5932 5931 5931 5931 5931 5931 5930 5930 5930
5955 5954 5954 5954 5954 5954 5954 5954 5954 5954 5954 5954 5954 5954 5954 5953 5953 5952 5952 5951 5951 5950 5949 5948 5948 5948 5948 5947 5947 5947 5947 5947 5946 5946 5946 5946 5946 5945 5945 5945 5945 5944 5944 5943 5942 5942 5942 5941 5941 5940 5940 5939 5939 5938 5938 5937 5936 5936 5935 5935 5934 5934 5934 5934 5933 5933 5933 5932 5932 5932 5932 5932 5931 5931
5954 5954 5954 5954 5954 5954 5954 5954 5954 5954 5954 5953 5954 5954 5953 5953 5952 5952 5951 5950 5950 5950 5949 5948 5948 5948 5948 5948 5948 5948 5948 5947 5947 5947 5947 5946 5946 5946 5945 5945 5945 5944 5944 5943 5942 5942 5942 5942 5941 5941 5940 5940 5940 5939 5939 5938 5937 5937 5937 5936 5936 5935 5935 5935 5934 5934 5934 5933 5933 5933 5932 5932 5932 5932
5953 5953 5953 5953 5953 5953 5953 5953 5953 5953 5953 5953 5953 5953 5952 5952 5951 5951 5951 5950 5950 5950 5950 5949 5949 5948 5948 5948 5948 5948 5948 5948 5948 5948 5947 5947 5947 5946 5946 5945 5945 5945 5944 5943 5943 5943 5942 5942 5941 5941 5940 5940 5940 5940 5939 5939 5938 5938 5938 5937 5937 5937 5936 5936 5935 5935 5934 5934 5934 5934 5933 5933 5933 5932
5953 5953 5953 5953 5953 5953 5953 5953 5953 5953 5953 5953 5953 5952 5952 5951 5951 5951 5950 5950 5950 5950 5950 5950 5950 5949 5949 5949 5949 5949 5949 5948 5948 5948 5948 5947 5947 5947 5946 5946 5945 5945 5944 5944 5943 5943 5942 5942 5941 5941 5940 5940 5940 5940 5939 5939 5939 5938 5938 5938 5938 5938 5937 5937 5936 5936 5935 5935 5935 5934 5934 5934 5933 5933
5952 5952 5953 5953 5953 5953 5953 5952 5952 5952 5952 5952 5952 5952 5952 5951 5951 5951 5950 5950 5950 5950 5950 5950 5950 5950 5950 5949 5949 5949 5949 5949 5948 5948 5947 5947 5947 5946 5946 5946 5945 5945 5944 5944 5943 5943 5942 5942 5941 5941 5941 5940 5940 5940 5939 5939 5939 5939 5938 5938 5938 5938 5938 5937 5937 5937 5936 5936 5935 5935 5934 5934 5934 5933
5951 5952 5952 5952 5953 5952 5952 5952 5952 5951 5951 5952 5952 5952 5952 5952 5951 5951 5950 5950 5950 5950 5950 5950 5950 5950 5950 5949 5949 5949 5949 5948 5948 5947 5947 5946 5946 5946 5945 5945 5945 5944 5944 5943 5943 5942 5942 5942 5941 5941 5940 5940 5940 5940 5939 5939 5939 5939 5938 5938 5938 5938 5938 5938 5937 5937 5936 5936 5935 5935 5934 5934 5934 5933
5951 5951 5951 5951 5951 5952 5951 5951 5951 5951 5951 5951 5951 5951 5952 5952 5951 5950 5950 5950 5949 5949 5949 5950 5950 5950 5950 5949 5949 5948 5948 5947 5947 5946 5946 5946 5945 5945 5944 5944 5944 5943 5943 5942 5942 5942 5941 5941 5940 5940 5940 5940 5939 5939 5939 5938 5938 5938 5938 5938 5938 5937 5937 5937 5937 5936 5936 5935 5935 5935 5934 5934 5933 5933
5950 5950 5950 5950 5950 5950 5950 5951 5951 5950 5950 5950 5950 5951 5951 5951 5951 5950 5950 5949 5949 5949 5949 5949 5949 5949 5949 5948 5948 5947 5947 5946 5946 5946 5946 5945 5945 5944 5944 5943 5943 5942 5942 5941 5941 5941 5940 5940 5940 5939 5939 5939 5938 5938 5938 5938 5938 5937 5937 5937 5937 5936 5936 5936 5936 5936 5935 5935 5934 5934 5933 5933 5933 5932
5949 5949 5950 5949 5949 5949 5950 5950 5950 5950 5950 5949 5949 5950 5950 5950 5950 5949 5949 5949 5949 5949 5949 5948 5948 5948 5947 5947 5947 5946 5946 5946 5945 5945 5944 5944 5944 5944 5943 5943 5942 5942 5941 5941 5940 5940 5939 5939 5939 5938 5938 5938 5937 5937 5937 5937 5936 5936 5936 5936 5935 5935 5935 5935 5934 5934 5934 5934 5933 5933 5933 5932 5932 5931
5948 5948 5949 5948 5948 5948 5948 5948 5949 5949 5949 5949 5949 5949 5949 5948 5948 5948 5948 5948 5948 5948 5948 5948 5948 5947 5947 5946 5946 5945 5945 5944 5944 5943 5943 5943 5943 5943 5943 5942 5942 5941 5941 5940 5940 5939 5939 5938 5938 5937 5937 5936 5936 5936 5936 5936 5935 5935 5935 5935 5934 5934 5934 5933 5933 5933 5932 5932 5932 5932 5932 5931 5931 5930
5946 5946 5946 5946 5946 5946 5946 5946 5947 5947 5947 5948 5948 5948 5948 5947 5947 5947 5947 5947 5947 5947 5947 5947 5947 5946 5946 5945 5945 5944 5944 5943 5942 5941 5941 5941 5941 5941 5941 5941 5941 5940 5940 5940 5940 5939 5938 5937 5937 5936 5936 5935 5935 5935 5935 5934 5934 5934 5934 5933 5933 5933 5932 5932 5932 5931 5931 5931 5930 5930 5930 5929 5929 5929
5944 5944 5944 5944 5944 5944 5944 5944 5945 5945 5945 5946 5946 5946 5946 5946 5946 5946 5946 5946 5946 5946 5946 5945 5945 5945 5945 5944 5944 5943 5942 5942 5941 5940 5940 5939 5939 5939 5939 5940 5940 5939 5938 5938 5938 5938 5937 5936 5936 5935 5935 5934 5934 5934 5933 5933 5933 5933 5932 5932 5932 5931 5931 5931 5930 5930 5929 5929 5928 5928 5928 5927 5927 5927
5942 5942 5943 5943 5943 5942 5942 5942 5943 5943 5943 5944 5944 5944 5944 5944 5944 5944 5944 5944 5944 5944 5944 5944 5944 5944 5943 5943 5942 5942 5941 5941 5940 5940 5939 5939 5938 5938 5937 5938 5939 5938 5937 5936 5936 5936 5936 5935 5934 5934 5934 5933 5933 5933 5932 5932 5931 5931 5930 5930 5930 5930 5929 5929 5928 5928 5927 5927 5926 5926 5925 5925 5925 5924
5940 5941 5942 5941 5941 5941 5941 5941 5941 5942 5942 5942 5942 5942 5942 5942 5942 5942 5943 5942 5942 5942 5942 5942 5942 5942 5942 5941 5941 5941 5940 5940 5940 5939 5939 5938 5938 5937 5936 5936 5937 5937 5936 5934 5934 5934 5934 5933 5933 5932 5932 5932 5931 5931 5931 5930 5930 5929 5929 5928 5928 5928 5927 5927 5926 5925 5925 5925 5924 5924 5924 5923 5923 5922
5937 5938 5939 5939 5939 5938 5939 5939 5939 5940 5940 5940 5940 5940 5940 5940 5940 5940 5940 5940 5940 5940 5940 5940 5940 5939 5939 5939 5939 5939 5939 5939 5939 5938 5938 5937 5936 5936 5935 5935 5935 5935 5934 5933 5932 5932 5932 5931 5931 5930 5930 5930 5929 5929 5929 5929 5928 5927 5927 5926 5926 5925 5925 5924 5924 5923 5922 5922 5922 5921 5921 5921 5920 5920
5935 5935 5936 5936 5936 5936 5937 5937 5937 5938 5937 5938 5938 5938 5938 5937 5937 5937 5937 5937 5937 5937 5937 5937 5937 5937 5937 5937 5937 5937 5937 5937 5937 5937 5936 5936 5935 5935 5935 5934 5934 5933 5933 5931 5930 5930 5929 5929 5929 5928 5928 5928 5928 5928 5927 5927 5926 5925 5925 5924 5923 5923 5922 5922 5921 5921 5920 5920 5919 5918 5918 5918 5917 5916
5932 5933 5933 5933 5933 5934 5934 5934 5935 5935 5935 5935 5936 5936 5935 5935 5935 5935 5935 5935 5935 5934 5934 5935 5935 5935 5935 5935 5935 5935 5936 5936 5936 5935 5934 5933 5933 5933 5933 5933 5933 5933 5932 5930 5929 5929 5928 5927 5926 5926 5926 5926 5926 5925 5925 5925 5924 5923 5922 5921 5920 5920 5920 5919 5919 5918 5918 5917 5917 5916 5915 5914 5914 5913
5930 5931 5931 5931 5931 5931 5931 5931 5932 5932 5932 5932 5932 5932 5933 5933 5933 5933 5933 5932 5932 5931 5932 5932 5932 5932 5933 5933 5933 5933 5934 5934 5934 5932 5931 5931 5931 5931 5930 5930 5930 5931 5930 5929 5928 5927 5927 5925 5924 5924 5923 5923 5923 5923 5922 5922 5922 5921 5920 5919 5918 5918 5917 5916 5916 5915 5915 5914 5914 5913 5913 5912 5911 5910
5927 5928 5928 5928 5928 5928 5928 5928 5928 5928 5928 5929 5929 5929 5930 5931 5931 5930 5930 5930 5929 5929 5929 5929 5929 5929 5930 5930 5930 5931 5932 5932 5931 5929 5929 5929 5929 5929 5928 5927 5927 5928 5927 5926 5925 5925 5925 5924 5922 5921 5921 5921 5920 5920 5919 5919 5918 5918 5917 5916 5916 5915 5914 5914 5913 5912 5912 5911 5911 5910 5910 5909 5908 5907
5924 5924 5925 5925 5925 5925 5925 5925 5925 5925 5925 5925 5925 5926 5926 5927 5927 5927 5927 5927 5926 5926 5926 5927 5927 5926 5926 5927 5927 5928 5928 5927 5927 5927 5926 5927 5927 5927 5925 5924 5924 5924 5924 5924 5923 5923 5922 5922 5920 5919 5918 5918 5917 5916 5916 5915 5914 5914 5914 5913 5913 5912 5912 5911 5910 5909 5909 5908 5907 5907 5906 5906 5905 5904
5920 5920 5920 5921 5921 5921 5921 5921 5921 5921 5921 5921 5921 5921 5922 5923 5923 5924 5924 5924 5923 5923 5923 5923 5923 5923 5924 5924 5924 5924 5924 5923 5923 5923 5923 5924 5924 5923 5922 5921 5920 5920 5921 5921 5921 5920 5920 5919 5918 5916 5915 5915 5914 5913 5912 5911 5910 5910 5910 5910 5910 5909 5908 5908 5907 5907 5906 5905 5904 5903 5902 5901 5901 5899
5917 5917 5916 5916 5917 5917 5917 5917 5917 5917 5917 5917 5917 5917 5918 5918 5919 5920 5920 5920 5920 5920 5920 5920 5919 5920 5921 5921 5921 5920 5920 5920 5920 5920 5920 5921 5921 5920 5919 5918 5917 5917 5918 5919 5918 5917 5916 5916 5915 5913 5911 5910 5910 5910 5909 5908 5907 5906 5906 5906 5906 5906 5905 5904 5904 5904 5903 5901 5900 5899 5898 5898 5896 5895
5911 5912 5912 5912 5912 5912 5912 5911 5911 5912 5912 5912 5913 5913 5914 5914 5915 5915 5916 5917 5917 5916 5916 5916 5915 5916 5917 5917 5917 5916 5916 5916 5916 5916 5916 5917 5916 5916 5915 5914 5914 5913 5914 5915 5915 5914 5913 5912 5911 5910 5908 5906 5906 5905 5905 5904 5903 5903 5903 5903 5902 5902 5901 5901 5900 5900 5898 5897 5896 5895 5895 5894 5893 5891
5906 5907 5906 5905 5905 5906 5906 5905 5905 5906 5906 5907 5908 5908 5909 5910 5910 5911 5912 5913 5913 5912 5912 5911 5912 5913 5913 5913 5912 5912 5912 5912 5912 5912 5912 5911 5911 5911 5911 5910 5910 5909 5910 5912 5912 5911 5909 5908 5907 5906 5905 5903 5902 5900 5899 5899 5899 5899 5900 5899 5898 5898 5897 5896 5895 5894 5893 5892 5892 5892 5892 5891 5889 5888
5901 5900 5899 5898 5899 5900 5900 5900 5900 5900 5901 5901 5902 5903 5904 5905 5905 5906 5907 5908 5908 5908 5908 5908 5909 5909 5909 5908 5908 5909 5909 5908 5907 5907 5906 5905 5905 5906 5906 5906 5905 5905 5906 5908 5908 5907 5905 5904 5904 5903 5902 5901 5899 5898 5895 5893 5893 5895 5895 5894 5894 5893 5892 5891 5890 5889 5889 5888 5888 5888 5887 5886 5885 5884
5895 5895 5894 5894 5894 5895 5895 5895 5895 5895 5895 5896 5896 5897 5898 5899 5900 5901 5902 5903 5904 5904 5904 5904 5905 5905 5904 5904 5904 5905 5905 5904 5902 5901 5900 5900 5900 5901 5901 5901 5900 5900 5901 5902 5903 5902 5900 5900 5900 5899 5899 5898 5896 5895 5892 5889 5889 5890 5890 5888 5888 5888 5888 5887 5886 5886 5885 5884 5884 5883 5883 5882 5881 5879
5891 5891 5891 5891 5891 5891 5891 5891 5892 5892 5892 5891 5892 5892 5892 5893 5894 5896 5897 5898 5900 5900 5900 5901 5901 5900 5900 5899 5899 5900 5900 5899 5898 5897 5896 5895 5895 5896 5895 5895 5895 5896 5896 5896 5897 5896 5896 5895 5895 5895 5895 5894 5893 5891 5889 5887 5886 5886 5885 5882 5881 5882 5883 5883 5882 5882 5881 5880 5879 5878 5878 5877 5876 5874
5888 5889 5888 5888 5888 5888 5888 5889 5889 5889 5888 5887 5887 5887 5888 5889 5890 5891 5892 5893 5894 5896 5896 5896 5896 5896 5896 5895 5895 5894 5894 5894 5893 5892 5891 5891 5891 5890 5889 5889 5889 5890 5890 5890 5890 5891 5890 5891 5891 5891 5890 5889 5888 5887 5886 5884 5883 5882 5881 5879 5878 5877 5878 5879 5879 5878 5877 5875 5874 5873 5872 5871 5870 5869
5884 5885 5885 5885 5885 5886 5887 5888 5887 5886 5885 5884 5883 5883 5885 5886 5886 5886 5887 5887 5888 5889 5890 5891 5891 5891 5891 5891 5890 5890 5889 5889 5889 5888 5887 5886 5885 5884 5883 5883 5883 5883 5883 5883 5884 5884 5885 5886 5886 5885 5884 5883 5882 5882 5881 5880 5879 5877 5876 5876 5875 5874 5873 5874 5874 5874 5873 5871 5869 5867 5866 5865 5864 5863
5880 5881 5881 5881 5881 5882 5883 5884 5884 5883 5883 5882 5881 5881 5881 5882 5882 5882 5882 5882 5882 5883 5883 5884 5884 5885 5885 5885 5885 5885 5885 5885 5884 5884 5883 5881 5880 5879 5878 5878 5877 5877 5877 5877 5878 5879 5880 5880 5880 5879 5878 5877 5876 5876 5876 5875 5874 5872 5872 5871 5871 5870 5870 5869 5868 5868 5867 5866 5864 5862 5860 5859 5858 5857
5877 5878 5879 5878 5878 5878 5879 5879 5879 5880 5880 5879 5878 5877 5877 5877 5877 5878 5878 5878 5877 5877 5878 5878 5878 5878 5878 5878 5879 5879 5879 5880 5880 5879 5877 5876 5875 5874 5874 5873 5873 5873 5872 5872 5873 5873 5874 5874 5873 5872 5872 5871 5870 5869 5869 5869 5868 5867 5866 5865 5865 5865 5865 5864 5862 5861 5860 5859 5858 5857 5855 5853 5851 5850
5874 5874 5875 5874 5874 5875 5875 5875 5874 5875 5875 5874 5873 5873 5873 5873 5873 5873 5873 5873 5873 5873 5873 5873 5872 5872 5872 5872 5873 5873 5874 5874 5874 5873 5872 5871 5870 5870 5869 5869 5869 5869 5869 5868 5868 5867 5867 5866 5866 5865 5865 5864 5864 5863 5862 5861 5861 5861 5860 5860 5859 5858 5858 5857 5856 5855 5854 5853 5852 5851 5848 5846 5844 5843
5870 5870 5870 5870 5870 5870 5870 5870 5870 5870 5869 5869 5869 5868 5868 5868 5868 5869 5869 5869 5869 5868 5868 5868 5868 5867 5867 5868 5868 5868 5868 5868 5868 5867 5867 5866 5866 5865 5866 5866 5866 5866 5865 5864 5863 5862 5861 5861 5860 5859 5857 5857 5856 5856 5855 5854 5854 5853 5853 5853 5853 5852 5850 5849 5848 5847 5847 5846 5845 5844 5842 5840 5837 5836
5865 5865 5865 5865 5865 5865 5865 5865 5865 5865 5865 5865 5864 5864 5864 5864 5864 5864 5865 5865 5864 5864 5864 5864 5863 5863 5863 5863 5863 5863 5863 5862 5862 5862 5861 5861 5861 5861 5862 5862 5862 5861 5860 5859 5858 5858 5857 5856 5855 5854 5852 5850 5848 5847 5847 5847 5847 5846 5846 5845 5845 5844 5843 5842 5841 5840 5839 5838 5837 5837 5836 5834 5831 5829
5860 5860 5860 5859 5859 5860 5860 5859 5859 5860 5860 5860 5860 5859 5859 5859 5860 5860 5860 5860 5860 5860 5859 5859 5859 5858 5858 5858 5857 5857 5857 5856 5856 5855 5855 5855 5855 5856 5856 5856 5855 5854 5854 5853 5853 5852 5852 5851 5850 5849 5847 5845 5843 5840 5838 5837 5837 5837 5838 5837 5836 5836 5836 5834 5833 5832 5830 5829 5828 5828 5827 5826 5824 5821
5854 5854 5854 5854 5854 5854 5854 5854 5854 5854 5854 5854 5854 5854 5854 5854 5855 5855 5855 5855 5855 5854 5854 5853 5853 5852 5852 5852 5851 5851 5850 5850 5849 5849 5849 5849 5850 5850 5849 5849 5848 5847 5846 5846 5846 5845 5845 5844 5844 5843 5842 5840 5839 5836 5833 5830 5828 5828 5828 5827 5827 5827 5826 5825 5824 5823 5821 5820 5819 5818 5817 5817 5816 5813
5848 5848 5848 5848 5848 5848 5848 5848 5848 5848 5849 5849 5849 5849 5849 5849 5849 5849 5849 5849 5849 5848 5848 5847 5846 5846 5845 5845 5845 5844 5844 5843 5843 5843 5843 5843 5843 5843 5842 5841 5840 5839 5838 5838 5837 5837 5836 5836 5836 5835 5834 5833 5832 5830 5828 5825 5822 5820 5819 5818 5817 5816 5815 5814 5814 5813 5811 5810 5809 5807 5806 5805 5804 5803
5841 5841 5842 5842 5842 5842 5843 5843 5843 5843 5843 5843 5843 5843 5843 5843 5843 5843 5843 5843 5842 5841 5841 5840 5840 5839 5839 5838 5838 5838 5838 5837 5837 5837 5837 5837 5836 5835 5834 5833 5832 5831 5830 5829 5828 5828 5827 5826 5826 5825 5824 5823 5822 5821 5819 5817 5815 5812 5811 5809 5808 5807 5806 5804 5803 5801 5800 5799 5798 5796 5795 5793 5792 5791
5834 5834 5835 5835 5836 5836 5836 5837 5837 5837 5837 5837 5837 5837 5837 5837 5837 5837 5837 5836 5835 5834 5834 5833 5832 5832 5832 5832 5832 5832 5832 5831 5831 5830 5830 5829 5828 5827 5826 5825 5824 5823 5822 5821 5820 5819 5818 5817 5816 5814 5813 5812 5811 5810 5809 5808 5806 5803 5802 5800 5798 5797 5796 5795 5793 5791 5790 5788 5787 5785 5784 5783 5781 5780
5827 5827 5827 5828 5828 5829 5829 5829 5829 5830 5830 5830 5830 5830 5830 5830 5830 5830 5830 5829 5828 5827 5826 5826 5825 5825 5826 5826 5825 5825 5825 5825 5824 5823 5822 5821 5820 5819 5818 5817 5816 5815 5813 5813 5811 5810 5809 5807 5806 5805 5804 5803 5801 5800 5799 5797 5795 5793 5792 5789 5787 5785 5784 5783 5781 5780 5778 5777 5775 5774 5773 5772 5770 5769
5819 5819 5819 5820 5820 5821 5821 5821 5821 5821 5822 5822 5822 5822 5822 5822 5822 5822 5822 5821 5820 5820 5819 5819 5818 5818 5818 5817 5817 5817 5817 5817 5816 5815 5814 5813 5812 5811 5810 5808 5807 5806 5805 5804 5802 5801 5800 5798 5797 5796 5795 5793 5792 5791 5790 5788 5786 5785 5782 5780 5777 5775 5772 5770 5769 5767 5765 5763 5762 5761 5760 5759 5758 5756
5812 5812 5812 5812 5812 5813 5813 5813 5813 5813 5813 5813 5813 5813 5814 5814 5814 5814 5813 5812 5812 5811 5811 5811 5811 5810 5810 5810 5810 5810 5809 5808 5807 5806 5805 5804 5804 5802 5801 5800 5799 5797 5796 5795 5793 5792 5790 5789 5788 5787 5785 5784 5782 5781 5780 5779 5777 5776 5774 5771 5768 5766 5763 5760 5758 5756 5753 5750 5749 5747 5745 5744 5743 5742
5804 5804 5804 5805 5805 5805 5805 5805 5805 5805 5805 5804 5804 5804 5805 5805 5805 5805 5804 5804 5803 5802 5802 5802 5802 5802 5802 5802 5802 5801 5800 5799 5798 5797 5796 5795 5795 5793 5792 5791 5790 5789 5788 5786 5785 5783 5782 5780 5778 5777 5775 5774 5772 5771 5770 5768 5767 5765 5763 5761 5759 5757 5754 5751 5748 5746 5742 5738 5736 5735 5733 5731 5729 5727
5795 5795 5795 5796 5796 5796 5797 5797 5796 5796 5796 5796 5796 5796 5796 5796 5796 5796 5796 5795 5794 5793 5792 5792 5792 5792 5792 5792 5792 5791 5790 5789 5789 5788 5787 5786 5785 5784 5783 5782 5781 5779 5778 5777 5775 5774 5772 5770 5769 5767 5766 5764 5763 5761 5759 5758 5756 5755 5753 5751 5749 5747 5745 5742 5739 5737 5733 5728 5725 5724 5722 5719 5716 5714
Wind_Speed
6 5 5 5 5 5 4 3 3 3 3 3 3 3 3 2 2 2 2 2 3 4 5 6 7 7 7 8 8 8 7 7 7 8 9 9 8 7 6 7 7 9 10 11 11 8 7 7 7 7 8 8 9 10 10 11 11 11 10 10 9 8 8 8 7 7 6 6 7 7 7 7 7 8
5 5 5 6 6 6 4 3 3 3 3 3 3 2 3 3 2 3 3 3 4 5 6 7 8 8 8 8 8 8 7 7 7 8 8 7 6 5 5 5 6 7 8 9 9 7 6 6 6 7 7 7 8 8 9 10 10 10 10 10 9 8 8 7 7 7 6 6 5 5 5 5 5 5
6 5 5 5 5 5 4 4 3 3 3 4 3 3 3 3 3 3 4 4 4 4 5 7 7 7 7 7 8 8 8 8 8 7 7 6 5 4 3 3 5 6 7 8 8 5 4 4 5 6 6 6 6 7 8 8 9 9 9 9 9 9 8 7 7 7 6 6 5 4 3 3 3 3
6 5 5 5 5 4 4 3 3 3 4 4 4 3 3 3 3 3 3 4 4 3 2 3 4 5 5 6 6 7 8 8 7 6 5 4 3 2 2 3 5 5 6 8 6 4 4 3 3 4 5 5 4 5 6 7 7 8 8 9 9 9 8 8 7 7 7 6 6 5 4 3 2 1
5 5 5 5 5 4 4 4 4 4 4 4 4 4 3 3 3 3 3 3 3 3 2 2 2 3 4 5 5 6 6 6 5 4 4 3 2 2 3 4 5 5 6 6 5 4 3 3 2 3 3 4 4 4 4 4 5 5 6 7 7 8 8 7 7 7 7 7 6 6 5 4 3 2
5 5 5 4 4 4 4 4 5 5 4 4 4 5 4 3 3 3 3 3 3 3 3 3 3 3 4 4 5 5 5 4 4 4 3 3 3 3 4 5 5 5 5 5 4 4 3 3 3 2 3 3 3 4 4 3 3 3 4 4 5 6 6 6 6 6 6 6 6 5 5 5 5 4
6 5 5 5 4 4 5 5 5 6 5 5 5 6 5 5 4 3 3 4 4 4 4 4 4 5 5 5 5 4 4 4 4 4 4 4 4 4 5 5 5 5 5 5 5 5 5 4 3 3 3 4 4 4 4 4 3 2 2 2 2 3 4 5 5 5 5 4 4 4 4 4 4 4
7 7 6 6 5 5 6 5 5 6 6 6 6 6 6 5 5 4 4 4 5 5 5 5 6 6 6 5 5 5 5 5 5 5 5 5 6 6 6 7 6 6 6 6 6 6 6 5 4 3 3 3 4 5 4 4 4 4 3 3 2 3 3 4 4 4 4 4 3 3 3 2 3 3
9 8 8 7 7 7 7 7 6 6 6 6 7 6 6 6 5 6 6 5 5 6 6 6 7 7 7 7 7 7 6 6 6 6 6 5 6 7 7 8 8 8 7 7 7 7 6 6 5 4 4 3 4 5 5 5 5 5 5 5 5 5 5 5 5 6 6 5 5 4 4 4 3 3
10 9 9 9 8 8 8 8 8 7 7 7 7 7 7 7 7 7 7 7 7 7 7 7 8 8 8 8 9 9 9 8 7 7 7 6 5 6 6 7 7 7 7 7 7 7 8 7 7 6 5 4 3 4 5 6 7 7 7 7 7 7 7 7 8 8 8 8 8 8 7 7 6 6
11 11 10 10 10 9 9 10 10 9 9 9 9 9 9 9 9 9 9 8 9 9 9 9 10 10 10 10 11 12 11 11 10 10 9 8 7 6 6 6 6 6 6 5 5 6 8 8 8 8 7 6 5 4 4 5 7 8 9 9 9 9 9 9 10 10 10 11 11 11 11 10 10 10
13 13 13 13 13 11 10 11 11 10 9 10 11 11 11 12 12 11 11 11 11 11 12 12 12 12 12 12 13 13 13 13 13 13 13 12 11 9 7 6 6 7 6 4 3 5 8 7 7 8 9 9 9 8 7 7 6 7 9 10 11 11 11 12 12 12 12 13 13 13 13 13 13 12
15 15 15 14 14 13 12 12 12 12 11 12 14 13 13 14 14 14 13 14 14 14 14 14 14 14 14 14 13 13 13 13 14 14 15 15 15 14 11 8 7 9 10 7 4 5 8 8 7 8 9 9 9 10 10 10 9 9 9 9 10 11 12 12 13 14 14 14 15 15 15 15 15 15
16 16 15 15 15 16 16 15 14 14 14 14 15 16 15 15 15 16 16 16 16 16 16 16 16 15 15 15 14 13 13 13 13 13 14 15 15 15 15 12 9 9 12 13 10 9 10 10 9 9 9 9 9 10 11 12 12 12 12 11 11 11 11 12 13 14 14 15 15 16 16 17 17 17
18 17 16 16 17 19 19 18 17 17 16 16 18 18 17 17 17 18 18 18 18 18 17 17 17 16 16 16 15 14 13 13 13 12 13 13 14 15 16 15 12 10 12 15 14 13 13 12 11 10 10 10 9 9 10 11 12 13 14 14 14 14 14 14 14 14 14 14 15 15 16 17 18 19
20 19 18 18 19 21 21 21 21 20 19 19 20 20 20 20 20 19 19 20 19 18 18 18 17 17 16 16 15 14 13 13 12 13 12 12 13 14 15 16 15 14 15 17 17 16 16 15 14 13 12 11 11 10 10 11 12 13 14 15 15 16 16 16 16 16 16 16 16 16 16 17 18 19
22 21 21 21 21 22 22 23 23 23 22 22 22 23 22 22 22 21 21 21 20 19 19 18 18 17 17 17 16 15 14 14 13 14 14 14 15 15 15 16 16 17 17 17 18 18 17 17 17 16 15 14 13 12 12 12 13 13 14 16 16 17 17 17 17 18 18 19 19 19 19 19 19 20
24 24 25 24 24 24 24 24 24 24 24 24 24 24 25 24 24 23 22 21 21 21 21 19 18 18 18 18 17 17 16 15 16 16 17 17 17 17 17 17 17 17 17 18 19 18 18 19 19 18 18 17 16 15 15 14 14 15 16 17 17 18 18 18 18 18 18 19 20 21 21 22 22 22
27 27 27 27 27 26 27 27 27 27 26 25 24 25 26 26 25 24 23 23 23 24 22 21 20 19 19 19 20 20 19 18 19 19 19 19 19 19 19 19 19 18 18 19 20 19 19 20 21 21 20 19 18 18 18 17 16 17 18 18 18 18 19 19 19 19 19 19 19 20 22 23 24 25
29 28 29 30 30 30 29 29 30 30 30 29 28 27 27 26 25 25 25 25 25 25 24 23 23 22 21 21 21 22 21 21 22 23 22 21 20 20 22 22 22 20 20 21 22 21 21 21 22 23 22 21 21 20 20 19 19 20 20 21 21 21 20 20 20 21 21 20 21 21 22 23 24 25
30 30 30 31 32 32 32 32 33 33 34 33 32 31 29 28 27 26 26 26 27 27 26 25 25 24 24 23 23 23 23 24 24 25 25 23 22 22 24 25 25 24 23 23 24 24 23 23 24 24 24 23 23 23 22 22 22 22 22 22 22 22 22 22 23 22 22 22 22 23 23 24 24 25
29 30 31 31 32 33 34 34 35 35 36 36 35 34 32 31 30 29 28 28 28 28 28 27 27 27 25 24 23 24 25 26 26 26 27 26 25 25 27 28 28 27 25 24 24 25 25 24 24 26 26 26 25 26 25 25 25 24 24 23 23 23 24 24 24 24 24 24 24 24 24 25 26 26
30 31 33 34 35 35 36 37 37 37 38 37 36 36 35 35 34 34 32 31 31 30 30 29 30 29 27 25 25 26 26 27 27 28 28 28 28 29 29 29 30 29 26 24 24 25 25 25 24 26 27 27 27 27 27 27 27 27 25 24 24 24 25 25 25 25 25 25 25 25 25 25 26 26
35 35 36 37 38 38 38 40 41 40 40 39 38 37 38 38 37 37 35 34 33 32 31 31 31 30 29 28 28 28 29 29 29 28 29 29 30 30 31 31 30 29 27 25 24 25 25 25 24 25 27 28 29 29 29 29 29 28 27 26 26 26 26 26 26 25 26 26 26 26 25 25 26 26
38 38 39 39 39 40 40 42 44 43 42 42 40 40 40 40 39 39 38 37 36 35 33 33 33 32 31 31 31 31 30 30 29 29 29 30 31 31 31 31 31 31 29 26 24 25 25 25 25 25 26 27 29 30 32 32 32 31 29 29 29 29 29 29 28 28 28 28 28 27 27 27 27 27
37 38 40 42 41 40 40 41 43 42 42 42 41 41 40 40 40 40 40 39 38 37 36 36 35 35 34 33 33 32 31 31 30 30 30 32 33 32 32 32 33 32 31 28 26 26 26 26 26 26 27 27 28 29 31 33 34 33 31 31 31 30 30 31 30 31 30 30 30 29 29 29 29 29
26 29 33 35 34 34 37 40 41 41 40 40 40 39 39 39 40 41 41 40 39 38 38 38 38 38 37 36 35 34 33 32 32 32 32 34 34 34 34 35 35 34 33 31 30 30 30 30 29 30 30 30 29 29 30 32 33 32 32 33 33 32 31 31 31 31 31 31 31 31 31 31 32 32
21 22 23 24 23 24 27 30 32 33 33 33 34 35 36 37 37 38 40 40 39 38 38 38 38 39 38 38 37 36 35 34 33 33 34 35 36 37 37 38 38 37 36 35 34 34 34 33 33 32 31 31 30 30 30 32 32 30 31 33 34 33 32 32 31 31 31 32 32 32 32 33 33 34
24 24 23 21 19 17 17 18 21 23 24 27 30 33 34 34 32 33 35 37 38 38 38 38 39 39 39 39 38 37 36 36 35 35 35 36 37 38 39 39 39 38 38 37 37 36 36 35 35 34 32 32 32 32 31 31 31 31 31 32 34 34 34 33 32 32 32 33 34 34 35 35 36 37
26 25 24 22 20 19 18 18 22 23 21 21 23 25 26 25 24 25 28 31 34 36 38 40 41 41 41 40 40 40 39 38 37 37 37 37 36 35 35 35 35 35 36 37 37 37 37 36 35 35 34 34 34 34 32 31 32 33 33 33 34 36 36 35 35 34 35 36 37 38 39 39 40 41
29 25 25 26 26 26 24 23 24 23 19 16 14 15 16 18 20 21 24 27 30 33 35 39 42 43 44 44 44 43 42 41 40 39 37 34 32 31 31 31 31 31 31 32 33 33 33 33 33 34 35 35 35 35 34 33 34 36 36 36 36 37 37 38 38 38 38 39 40 41 42 43 43 44
32 29 30 32 31 28 27 25 25 24 22 19 17 16 17 20 22 23 25 27 29 30 32 34 38 40 42 43 44 43 42 40 39 37 34 32 31 32 32 33 33 32 31 31 31 31 31 31 33 34 35 36 36 36 36 36 37 38 39 40 39 39 39 39 40 40 41 41 41 42 43 44 45 46
36 35 35 34 31 29 28 28 27 26 25 23 23 22 23 23 24 25 27 29 30 31 32 33 35 37 38 38 39 39 38 36 34 33 32 32 33 34 35 34 34 34 33 33 34 33 34 34 35 36 37 38 38 39 39 40 40 40 41 41 41 42 42 42 42 43 43 43 43 44 45 46 47 48
35 34 33 32 31 30 30 30 29 28 27 27 27 28 28 27 28 28 30 31 32 33 33 33 34 35 36 36 36 35 34 32 32 32 34 35 36 37 36 36 35 34 35 36 36 37 37 37 38 39 40 41 41 41 42 42 43 43 44 44 44 44 45 45 46 46 46 46 46 46 47 49 50 51
34 33 32 32 32 32 33 33 33 33 33 33 32 32 32 31 31 32 32 33 34 35 35 35 34 35 35 35 35 34 34 34 35 36 38 39 39 39 38 37 37 38 38 39 40 39 39 39 40 41 42 44 45 45 46 46 46 46 47 47 47 48 48 49 50 50 50 51 51 50 50 51 52 54
36 36 36 36 37 36 36 36 36 37 36 35 34 34 33 33 33 34 34 35 35 35 36 35 35 35 36 36 36 37 38 38 39 40 41 42 41 40 40 40 41 42 42 43 43 43 43 43 43 44 44 46 47 49 50 51 51 51 51 51 51 51 52 52 53 54 54 55 55 55 55 54 55 56
40 40 40 40 40 40 39 39 38 38 37 36 35 35 34 34 34 35 35 35 36 36 36 36 36 36 37 38 39 40 41 42 42 43 43 43 42 42 43 44 45 45 46 47 47 47 47 47 47 47 48 48 48 49 51 53 55 55 55 55 55 56 56 56 56 57 57 58 58 58 59 58 58 59
42 42 42 42 42 42 42 42 41 40 39 38 37 37 37 37 37 37 37 37 37 38 38 38 38 39 40 40 41 43 43 44 45 46 46 46 46 46 47 48 49 50 51 51 51 52 52 52 52 52 52 52 51 51 52 53 56 57 58 59 59 60 60 61 61 61 61 62 62 63 63 63 63 63
45 45 44 44 44 44 44 44 44 43 43 41 40 40 39 39 39 39 39 40 40 41 41 42 42 43 43 44 45 46 47 47 48 49 49 49 50 51 51 52 53 54 54 55 56 56 57 57 57 57 57 57 57 56 56 56 57 59 60 61 62 63 63 64 65 65 65 66 66 66 67 67 68 68
48 48 48 47 47 47 46 46 46 46 46 45 45 44 44 43 43 43 43 43 44 44 45 46 47 47 48 48 49 49 50 51 52 52 53 53 54 55 56 56 57 57 58 59 60 60 61 61 62 62 62 62 61 61 61 60 60 61 62 63 65 65 66 66 67 68 69 69 69 69 69 69 69 70
51 51 51 51 50 50 50 50 50 50 49 49 49 49 49 48 48 48 48 48 49 49 50 51 51 52 52 53 53 54 54 55 56 56 57 58 59 60 60 60 61 61 61 61 62 62 62 62 63 63 63 63 63 63 63 63 63 63 64 66 67 68 69 70 70 71 72 72 73 73 73 73 73 73
53 53 53 53 53 53 52 52 52 52 52 52 52 52 52 52 52 52 53 53 54 54 55 55 55 56 56 57 57 57 58 58 59 59 60 61 61 61 62 62 62 62 62 62 62 62 62 63 63 63 63 64 64 64 65 65 66 66 67 68 69 71 72 73 74 75 75 76 76 77 77 77 77 77
54 54 55 55 55 55 54 54 54 54 53 54 54 54 54 54 54 54 54 55 56 56 56 56 57 57 57 58 58 58 58 58 59 59 60 60 60 61 61 62 62 62 62 63 63 64 64 65 65 65 66 66 67 67 68 68 69 69 70 70 71 72 73 75 76 77 78 79 80 81 81 82 82 82
56 55 55 56 56 56 56 56 56 56 56 56 56 56 56 56 56 56 56 56 57 57 57 57 58 58 58 58 58 59 59 60 61 61 61 62 62 62 63 63 64 64 65 65 66 66 67 67 67 68 68 68 69 69 70 70 71 71 72 72 73 73 74 75 76 77 77 79 80 81 82 84 85 86
58 58 58 57 57 57 57 57 57 58 58 58 58 58 58 58 58 59 59 59 59 60 60 60 60 60 60 60 61 61 61 62 62 62 63 63 63 64 64 64 65 65 65 66 66 66 67 67 68 68 69 69 70 70 71 71 72 72 72 73 73 74 74 75 76 76 77 78 79 80 80 82 83 84
Wind_Direction
190 194 192 187 180 188 198 175 170 186 184 192 208 222 248 278 313 337 351 355 354 350 355 4 6 10 13 17 27 36 41 49 62 76 85 88 87 81 60 38 26 20 15 20 30 34 32 30 33 39 42 41 40 39 41 44 48 54 57 59 63 68 71 74 76 79 84 88 91 91 91 91 89 88
195 196 198 198 196 207 217 208 208 218 218 227 234 243 265 284 296 310 327 344 353 349 351 2 7 7 9 14 22 34 44 52 58 67 75 77 76 68 50 32 20 12 12 22 33 37 32 27 28 34 38 38 37 36 38 41 44 49 55 59 60 62 65 68 71 73 76 81 88 95 98 100 102 100
200 197 200 203 203 209 219 222 232 243 249 263 279 284 285 291 295 306 325 342 359 356 343 349 356 359 3 9 18 29 41 48 49 53 61 65 67 57 37 21 8 1 7 21 34 42 38 30 29 30 31 34 33 30 33 37 40 44 50 55 58 60 61 60 61 62 64 65 69 76 85 97 107 112
212 209 209 212 216 219 222 225 235 250 265 284 298 302 301 308 316 329 347 353 5 13 344 333 338 345 355 3 12 21 28 33 34 39 49 57 63 51 16 1 354 353 5 18 29 44 42 33 26 24 22 23 22 20 24 31 39 44 47 49 51 54 56 58 57 55 54 53 52 51 50 53 63 80
236 231 227 224 228 234 239 242 249 262 274 286 296 302 308 321 330 345 2 3 1 2 349 318 318 335 348 357 7 9 8 10 15 25 34 34 35 18 349 340 340 344 357 11 21 34 35 30 19 5 2 3 2 357 3 19 35 46 49 47 45 46 49 52 55 54 52 50 46 41 35 27 19 10
250 252 252 248 245 245 248 251 257 265 271 278 285 290 294 302 313 324 339 336 325 323 321 316 320 335 342 347 354 354 347 345 345 346 348 344 344 343 336 335 338 342 349 359 5 8 14 19 13 347 323 323 334 338 338 345 9 37 49 46 40 37 38 42 46 50 51 49 46 40 33 23 12 2
248 251 257 259 259 259 258 257 261 268 274 276 281 284 287 291 298 307 308 301 299 302 307 317 324 328 331 333 336 335 330 327 324 319 318 319 321 323 325 330 335 339 343 343 341 343 346 353 357 342 305 291 296 310 323 325 327 341 3 21 22 18 17 19 26 33 40 42 42 38 31 22 11 360
248 245 246 250 257 263 265 264 264 271 278 280 278 279 283 284 285 285 282 281 289 294 301 313 317 316 318 319 318 317 314 312 309 308 311 315 318 319 321 323 325 329 332 331 330 331 331 331 335 331 310 284 279 284 293 303 306 306 303 301 306 316 329 338 343 351 359 6 11 10 5 358 350 344
256 251 246 244 248 255 262 267 268 271 277 280 281 280 280 279 273 270 271 274 278 283 290 299 300 299 302 305 305 304 302 304 305 306 309 311 309 310 312 314 318 323 325 327 328 328 326 326 330 325 310 290 276 272 274 279 284 285 282 279 279 283 290 299 306 312 317 321 323 324 322 317 313 309
263 263 261 258 257 259 264 270 270 270 272 274 277 279 279 275 267 265 270 271 272 275 280 285 288 290 295 298 299 297 298 301 303 304 306 305 300 295 297 304 312 317 319 322 324 323 323 327 331 328 319 307 292 277 270 269 269 271 273 273 274 276 280 285 289 293 297 300 303 305 306 305 303 300
264 267 268 265 263 261 265 270 268 268 272 273 271 270 271 268 263 262 265 269 273 276 278 281 286 290 293 294 294 295 300 305 307 309 309 307 304 300 299 308 315 312 310 315 317 310 307 312 318 322 325 326 324 314 293 274 267 268 271 272 273 273 274 276 279 282 286 290 293 296 297 298 299 298
260 260 259 259 258 255 255 261 262 260 262 266 266 264 264 267 266 264 265 269 272 274 276 281 285 286 288 290 292 297 303 308 310 313 314 314 313 312 312 317 317 312 308 312 310 296 293 295 301 307 311 317 320 318 312 302 289 279 273 271 272 274 275 275 275 276 278 281 284 286 288 289 290 291
256 255 256 258 258 256 253 254 256 256 254 257 259 258 257 261 264 265 266 268 271 273 277 281 283 284 285 288 292 296 301 303 305 308 310 311 314 315 315 320 325 320 314 316 314 300 295 294 292 291 293 298 302 303 305 307 306 299 290 283 280 278 278 278 277 276 275 275 276 278 280 281 283 284
260 259 260 260 258 257 256 254 254 255 256 260 262 260 258 259 261 263 265 268 270 273 277 280 282 284 285 286 288 290 293 294 295 297 299 302 307 309 310 315 323 319 310 310 313 311 305 301 298 294 290 290 289 289 291 295 297 299 299 299 297 292 287 284 281 278 276 273 272 273 274 275 277 278
263 263 264 264 262 260 260 260 258 258 259 262 263 263 262 262 263 264 267 269 271 273 276 279 280 280 281 283 284 286 286 287 287 289 292 296 299 301 303 308 313 311 305 306 309 312 310 307 307 305 300 295 290 287 286 287 288 291 294 296 297 297 295 293 290 288 284 280 276 274 273 272 273 274
256 261 265 266 266 265 265 265 265 265 264 264 264 264 263 262 263 265 268 270 271 274 276 277 277 277 278 279 280 281 281 282 285 287 287 288 290 292 296 302 307 309 307 306 307 309 309 307 308 308 305 301 297 294 292 289 287 288 290 291 293 294 294 294 294 294 293 291 288 284 280 277 275 274
255 258 260 262 263 266 267 268 268 268 269 268 267 266 264 264 266 267 268 270 271 272 273 275 276 276 276 276 276 277 278 281 285 287 286 285 285 287 291 294 298 301 302 301 301 302 303 303 303 303 302 301 300 298 293 289 288 290 291 291 291 291 291 290 290 291 292 293 293 291 289 286 283 280
256 258 258 258 260 262 264 266 266 267 268 268 267 266 266 267 269 270 270 271 271 270 270 272 272 272 273 275 276 277 279 283 285 286 286 286 287 289 291 292 293 295 296 295 294 295 297 298 298 297 297 298 297 295 291 290 289 287 285 284 285 286 287 288 288 288 288 288 289 290 290 289 288 287
254 258 260 261 261 262 262 263 265 265 265 266 267 267 267 268 268 269 270 270 269 269 270 270 269 268 270 274 277 279 282 286 286 284 284 286 290 295 295 294 293 294 295 293 292 293 294 294 294 293 294 294 293 292 291 290 288 285 281 280 280 281 282 283 285 285 285 284 285 286 287 289 290 290
256 258 261 262 264 265 264 264 264 265 264 265 266 268 268 268 267 267 267 267 267 268 268 269 269 269 270 273 277 280 283 283 281 280 281 284 289 293 294 293 293 294 294 293 293 293 292 292 292 291 291 291 289 288 287 287 285 283 283 283 282 281 280 280 280 281 282 282 282 282 284 286 287 287
261 262 263 265 267 266 264 264 264 264 264 265 266 267 267 268 266 264 265 265 266 266 267 268 268 268 269 271 275 278 279 279 278 279 281 284 287 290 290 291 291 291 291 291 291 291 291 290 291 290 290 290 288 286 285 284 282 281 281 282 283 283 283 282 281 280 279 279 278 278 279 280 280 280
266 268 270 271 271 269 267 266 265 264 263 263 264 265 266 266 265 263 262 263 264 265 267 269 269 268 268 270 273 276 277 279 280 282 285 287 289 288 288 288 288 288 289 289 288 288 288 289 290 291 290 290 289 288 287 285 283 282 282 283 284 285 284 284 283 282 281 280 278 277 277 277 277 277
268 269 269 271 272 272 271 270 267 264 261 260 260 262 263 264 264 263 262 262 263 264 267 269 270 270 271 273 274 276 277 278 280 282 285 287 288 286 286 286 286 287 288 287 286 285 286 286 288 289 290 290 289 289 288 287 286 284 283 284 285 285 285 285 286 286 284 282 280 279 278 277 277 277
269 267 267 268 269 271 271 270 268 266 262 259 258 258 260 261 261 262 262 262 263 264 265 266 269 271 273 274 275 275 276 277 278 280 282 283 283 283 283 284 285 286 286 285 286 286 286 286 286 286 288 289 289 288 287 285 284 285 286 287 287 287 287 287 287 285 283 281 280 279 278 278 277 277
267 266 265 263 262 264 266 267 267 267 264 262 259 258 258 258 259 260 261 261 262 263 263 265 268 270 272 271 272 272 273 274 276 277 278 278 278 279 281 283 284 284 284 286 288 287 286 285 285 285 285 287 288 288 287 285 284 284 285 286 286 287 287 286 285 283 281 280 280 280 280 279 278 278
261 261 260 259 259 259 261 262 264 265 265 264 262 260 259 258 258 259 260 261 262 264 265 265 266 268 268 268 269 270 272 273 274 275 275 276 277 279 281 283 283 284 285 286 286 284 282 281 281 282 283 285 287 288 288 287 285 284 283 282 282 283 284 284 285 284 283 283 282 282 282 281 280 280
255 256 256 259 263 262 260 260 261 263 264 265 265 264 263 262 261 259 259 260 262 265 267 267 267 267 267 267 268 269 270 270 271 272 273 275 277 279 281 281 282 283 284 283 282 280 279 278 279 279 280 282 284 286 288 288 287 287 285 282 280 280 281 283 284 285 284 284 283 282 281 281 281 280
253 255 257 262 268 269 266 264 263 263 265 265 264 264 264 264 263 262 261 260 261 263 266 267 268 268 268 268 269 269 268 268 270 271 272 274 277 279 279 279 279 279 278 278 277 277 277 277 279 281 280 278 278 281 283 284 286 287 286 283 282 282 282 283 284 285 285 284 283 282 281 280 279 279
258 259 261 264 268 272 273 272 270 270 272 270 267 265 264 265 267 269 268 265 261 261 263 266 268 269 269 269 270 269 269 269 270 272 274 276 278 279 278 277 276 275 274 273 273 273 273 274 277 279 279 275 274 275 276 277 278 279 279 280 282 283 283 283 283 284 284 284 283 282 281 280 279 279
262 262 259 258 266 274 271 264 264 269 274 275 272 269 268 267 270 272 273 270 265 262 262 263 265 267 267 268 268 269 269 270 271 274 277 277 277 277 276 276 275 273 273 272 272 272 272 273 275 275 274 272 272 273 274 273 273 274 275 276 278 280 282 282 281 280 280 280 280 280 280 279 279 279
263 263 261 263 273 276 267 257 256 260 266 272 274 270 265 264 265 266 267 267 265 263 262 263 264 265 265 265 266 267 267 268 271 273 274 272 271 271 271 272 273 272 272 272 272 273 274 274 272 271 270 271 271 272 272 271 272 272 274 275 275 276 278 279 280 279 278 278 278 279 279 280 280 280
261 263 265 269 272 267 258 255 256 256 258 264 270 268 262 260 260 259 260 261 262 263 264 264 264 265 265 265 265 265 266 267 268 269 268 267 268 269 269 269 270 270 270 271 271 273 273 273 271 270 270 270 271 272 272 272 271 272 273 275 276 276 276 276 277 278 278 278 278 279 280 280 280 280
261 264 266 267 264 257 254 257 259 257 258 263 269 270 268 265 262 260 260 261 263 264 265 263 262 262 263 264 264 265 266 266 265 265 266 267 268 268 268 269 270 271 273 274 275 275 275 275 274 274 273 273 273 274 275 274 273 272 272 273 275 277 277 277 276 276 277 278 279 280 280 281 281 281
261 263 262 260 257 254 254 256 257 257 261 265 268 268 267 265 263 261 261 263 265 266 266 266 263 262 261 261 261 262 262 262 262 264 266 267 267 268 269 271 273 274 275 276 276 276 277 277 277 277 277 276 275 274 274 275 275 275 274 274 275 277 277 277 277 277 277 278 278 279 280 280 281 281
259 259 258 257 256 255 256 257 257 259 263 266 267 266 265 263 262 261 262 263 264 266 267 267 266 264 262 260 260 260 260 262 263 265 266 266 268 270 272 273 274 275 274 274 274 275 276 278 279 280 280 280 280 278 277 276 275 275 275 276 276 276 277 277 277 277 278 278 278 278 279 280 280 280
259 258 257 258 259 260 261 261 261 262 264 265 265 264 263 262 262 262 263 264 265 266 267 268 268 267 265 265 264 264 265 265 266 267 268 269 271 273 274 274 274 274 274 274 275 276 277 278 278 279 280 281 282 282 281 280 279 278 278 278 277 277 277 277 277 277 277 278 277 277 278 279 280 280
259 258 258 259 260 261 262 263 263 263 264 264 264 263 263 262 262 262 263 264 265 266 267 267 267 267 266 266 267 267 268 268 269 270 271 273 275 276 276 276 276 276 276 277 277 278 279 279 279 279 279 279 279 280 281 281 282 282 282 282 281 281 280 280 280 279 279 279 279 279 278 278 279 279
259 259 259 259 260 261 262 263 264 264 264 264 263 263 263 263 263 264 264 264 264 264 265 265 266 266 267 267 268 268 269 271 272 273 274 276 277 277 278 278 278 279 279 279 280 280 280 280 281 281 280 280 280 280 281 281 282 283 283 283 283 283 283 283 282 282 282 282 282 281 281 281 280 280
259 260 260 260 260 260 261 262 263 263 264 264 264 263 263 262 262 262 263 263 263 264 264 264 265 265 266 267 268 269 270 272 273 274 276 277 278 278 279 279 279 280 281 281 281 281 282 282 282 282 282 282 282 282 282 283 283 283 283 283 283 284 284 284 284 284 284 283 283 283 283 283 283 283
260 261 261 261 261 261 262 262 262 262 262 263 263 263 263 262 262 262 262 262 263 263 264 264 264 265 266 266 268 269 270 271 273 274 275 276 277 277 278 278 279 280 280 281 281 282 282 282 283 283 283 284 284 284 284 284 284 284 284 284 284 284 284 283 283 283 283 283 283 283 283 283 284 284
263 263 263 263 263 263 263 263 263 263 263 263 263 262 262 262 263 263 263 263 263 263 264 264 265 266 266 267 267 268 269 270 271 272 273 274 275 276 276 277 278 278 279 279 280 281 281 281 282 282 283 283 284 284 284 285 285 285 285 285 285 285 284 284 284 283 283 283 282 282 283 283 283 283
262 263 264 264 265 265 265 265 265 265 265 264 264 264 263 263 263 263 263 263 263 263 263 264 265 266 266 267 267 268 269 270 271 271 272 273 274 274 275 276 277 277 278 279 279 280 280 280 281 281 281 281 282 282 282 283 284 284 285 285 286 286 286 286 286 285 285 285 284 284 283 283 283 283
260 261 262 263 264 264 265 265 265 265 266 266 265 265 265 265 265 265 265 264 264 264 264 264 264 265 265 266 267 268 269 269 270 271 271 272 272 273 274 274 275 276 277 278 278 279 279 280 280 280 281 281 281 281 281 282 282 283 283 284 284 285 285 285 286 286 286 286 285 285 284 284 283 283
261 261 262 262 262 263 263 264 264 264 264 265 265 266 266 266 266 266 266 266 266 267 267 267 266 267 267 267 267 268 268 269 269 270 270 271 271 272 273 273 274 275 275 276 277 277 278 279 279 280 280 281 281 281 281 282 282 282 282 283 283 284 284 285 285 286 286 286 286 286 286 285 285 284
263 263 264 264 263 263 263 263 263 263 263 264 264 264 265 265 265 266 266 267 267 267 268 268 268 269 269 269 270 270 270 270 270 270 271 271 271 272 272 273 273 274 275 275 276 277 278 278 279 279 280 280 281 281 281 281 282 282 282 282 283 283 283 284 285 285 286 287 287 287 288 287 287 287